CST,Max TemperatureF,Mean TemperatureF,Min TemperatureF,Max Dew PointF,MeanDew PointF,Min DewpointF,Max Humidity, Mean Humidity, Min Humidity, Max Sea Level PressureIn, Mean Sea Level PressureIn, Min Sea Level PressureIn, Max VisibilityMiles, Mean VisibilityMiles, Min VisibilityMiles, Max Wind SpeedMPH, Mean Wind SpeedMPH, Max Gust SpeedMPH,PrecipitationIn, CloudCover, Events, WindDirDegrees
2011-11-1,51,46,42,37,33,30,71,59,50,30.07,29.95,29.78,10,10,10,25,15,31,0.00,1,,344
2011-11-2,42,36,30,34,28,19,100,77,42,30.37,30.31,30.20,10,8,2,26,14,33,0.19,4,Snow,342
2011-11-3,50,36,21,27,20,14,86,62,24,30.35,30.26,30.12,10,10,10,18,8,22,0.00,0,,217
2011-11-4,51,42,32,28,23,21,69,53,33,30.08,29.93,29.80,10,10,10,29,20,36,0.00,0,,176
2011-11-5,59,48,37,30,29,28,70,54,31,29.71,29.51,29.32,10,10,10,37,21,45,0.00,0,,170
2011-11-6,48,40,32,39,28,14,100,70,25,29.91,29.73,29.41,10,10,2,21,13,31,0.01,2,Rain-Snow,270
2011-11-7,44,34,23,27,21,16,86,61,34,30.19,30.13,30.06,10,10,10,12,5,,0.00,2,,70
2011-11-8,50,38,26,27,23,21,86,62,32,30.17,30.12,30.09,10,10,10,6,1,,0.00,3,,313
2011-11-9,44,36,28,25,19,12,75,54,29,30.37,30.30,30.22,10,10,10,24,10,31,0.00,0,,307
2011-11-10,51,36,21,23,19,16,86,59,26,30.31,30.15,29.88,10,10,10,12,6,16,0.00,0,,231
2011-11-11,62,48,35,21,18,10,56,36,13,29.81,29.77,29.69,10,10,10,14,10,18,0.00,0,,270
2011-11-12,66,50,33,28,21,16,60,36,16,29.58,29.43,29.33,10,10,10,26,11,34,0.00,0,,234
2011-11-13,51,44,35,36,25,18,81,50,26,29.49,29.40,29.27,10,10,10,24,14,33,0.00,2,,265
2011-11-14,55,42,28,27,22,12,80,52,19,29.62,29.55,29.47,10,10,10,18,10,25,0.00,1,,250
2011-11-15,42,34,26,27,15,0,80,49,20,30.03,29.83,29.56,10,10,10,24,9,32,0.00,2,,300
2011-11-16,35,30,26,21,12,3,74,49,30,30.25,30.18,30.08,10,10,10,23,7,30,0.00,5,,283
2011-11-17,55,34,14,23,15,9,86,52,20,30.21,29.95,29.65,10,10,10,23,10,29,0.00,0,,207
2011-11-18,46,39,32,25,22,18,69,52,32,29.64,29.61,29.57,10,10,10,16,10,21,0.00,1,,300
2011-11-19,32,26,19,28,20,18,100,88,75,30.08,29.80,29.61,10,8,2,23,17,28,0.00,7,Snow,1
2011-11-20,35,24,12,21,16,9,93,76,52,30.21,30.15,30.09,10,10,10,16,7,18,0.00,3,,167
2011-11-21,48,34,21,28,24,19,93,69,43,30.10,30.04,29.96,10,10,10,16,9,,0.00,0,,191
2011-11-22,55,42,28,32,28,25,87,67,35,30.01,29.98,29.96,10,10,10,13,7,17,0.00,1,,262
2011-11-23,64,47,30,32,27,23,87,56,21,30.10,30.04,29.97,10,10,10,17,9,21,0.00,0,,242
2011-11-24,73,54,35,28,23,12,70,40,10,29.91,29.80,29.72,10,10,10,17,10,18,0.00,0,,218
2011-11-25,59,47,35,30,25,21,61,41,25,29.71,29.66,29.60,10,10,10,17,9,22,0.00,0,,262
2011-11-26,41,36,30,28,15,0,70,44,20,30.36,30.19,29.88,10,10,10,36,26,50,0.00,1,,324
2011-11-27,48,32,17,14,9,0,68,43,14,30.37,30.26,30.10,10,10,10,13,7,,0.00,0,,249
2011-11-28,60,46,32,28,23,18,65,47,23,30.25,30.05,29.95,10,10,10,34,13,39,0.00,0,,294
2011-11-29,46,32,19,28,20,14,93,70,27,30.37,30.30,30.15,10,10,10,15,7,16,0.00,1,,235
2011-11-30,53,42,32,30,25,19,75,56,35,30.00,29.83,29.71,10,10,10,18,9,22,0.00,0,,236